Preview of NWS' New Version of Forecast
This preview is not operational and should not be used for support decisions.

Regional Weather Roundup (RWR)

Issued by Philadelphia/Mt Holly (PHI)

                            
000
ASUS41 KPHI 171712
RWRPHI

REGIONAL WEATHER ROUNDUP
NATIONAL WEATHER SERVICE MOUNT HOLLY NJ
1200 PM EST THU JAN 17 2019

NOTE:  "FAIR" INDICATES FEW OR NO CLOUDS BELOW 12,000 FEET WITH NO
SIGNIFICANT WEATHER AND/OR OBSTRUCTIONS TO VISIBILITY.

 * = STATION DOES NOT REPORT PRECIPITATION (E.G. RAIN, SNOW, ETC.) 
        OR FOG.

NJZ015>026-171800-
SOUTHERN NEW JERSEY
  
CITY           SKY/WX    TMP DP  RH WIND       PRES   REMARKS
POMONA         FAIR      32   8  36 E6        30.38F WCI  26          
WILDWOOD*      FAIR      34  18  52 NE7       30.39F WCI  28          
MILLVILLE      FAIR      32  16  51 NE6       30.38F WCI  26          
WRIGHTSTOWN    PTSUNNY   32   4  30 N5        30.36F WCI  27          
MOUNT HOLLY    FAIR      32   5  32 VRB3      30.39F                  
TRENTON        FAIR      31   6  35 CALM      30.38F                  

$$
NJZ001>014-171800-
NORTHERN NEW JERSEY
  
CITY           SKY/WX    TMP DP  RH WIND       PRES   REMARKS
SUSSEX         FAIR      28   9  44 E6        30.36F WCI  22          
ANDOVER*         N/A     27   3  35 N5        30.35F WCI  22          
MORRISTOWN     PTSUNNY   30  10  43 E3        30.40F                  
NEWARK         PTSUNNY   31   8  38 NE7       30.39F WCI  24          
TETERBORO      FAIR      29   7  39 VRB6G16   30.39F WCI  23          
CALDWELL       FAIR      28   7  41 E5        30.39F WCI  23          
SOMERVILLE     FAIR      31   3  30 CALM      30.37F                  
ALLAIRE*       FAIR      31  14  49 VRB3      30.39F                  
TOMS RIVER*    FAIR      33  10  38 CALM      30.39F                  

$$
PAZ043-044-047-054-055-060>062-066>071-171800-
EASTERN PENNSYLVANIA
  
CITY           SKY/WX    TMP DP  RH WIND       PRES   REMARKS
PHILADELPHIA   CLOUDY    32   5  32 E8        30.39F WCI  25          
NORTH PHILA    FAIR      33   4  29 E5        30.39F WCI  29          
BLUE BELL*     FAIR      30   5  34 E5        30.38F WCI  25          
DOYLESTOWN     FAIR      30   3  31 CALM      30.36F                  
QUAKERTOWN*    SUNNY     28   1  31 CALM      30.35                   
PERKASIE*      FAIR      28   1  31 E3        30.36F                  
POTTSTOWN      FAIR      27   8  44 CALM      30.38F                  
LANCASTER      FAIR      30  16  56 E7        30.35F WCI  23          
COATESVILLE    FAIR      28  14  54 CALM      30.35F                  
READING        FAIR      29  11  47 N7        30.35F WCI  22          
ALLENTOWN      FAIR      30   6  36 E6        30.36F WCI  24          
MOUNT POCONO   FAIR      23   1  38 E6        30.25F WCI  16          
HAZLETON       FAIR      30   5  34 CALM      30.29F                  
LEHIGHTON      FAIR      28   7  40 CALM      30.36F                  
WILKES BARRE   FAIR      25   5  42 NW3       30.31F                  

$$
DEZALL-MDZ008-012-015-019-020-171800-
DELAWARE AND EASTERN MARYLAND
  
CITY           SKY/WX    TMP DP  RH WIND       PRES   REMARKS
WILMINGTON     FAIR      31  16  54 E7        30.39F WCI  24          
DOVER          PTSUNNY   33  21  61 E6        30.38F WCI  28          
GEORGETOWN     FAIR      39  26  59 E7        30.38F WCI  34          
EASTON         SUNNY     36  21  55 NE5       30.41F WCI  32          
ABERDEEN       CLOUDY    31  20  63 NE9       30.38F WCI  23          
PATUXENT       CLOUDY    37  28  70 E8        30.37  WCI  31          
OCEAN CITY     FAIR      39  27  62 E7        30.37F WCI  34          
WALLOPS ISLAND FAIR      41  29  62 NE10      30.36F                  
CAMBRIDGE      CLOUDY    36  25  64 E8        30.37F WCI  29          
SALISBURY      FAIR      38  27  64 E8        30.36F WCI  32          

$$
PAZ001-021-NYZ056-072-MDZ011-DCZ001-171800-
OTHER NEARBY LOCATIONS
  
CITY           SKY/WX    TMP DP  RH WIND       PRES   REMARKS
HARRISBURG     CLOUDY    31  17  56 SE5       30.34F WCI  26          
STATE COLLEGE  SUNNY     27  16  63 CALM      30.26F                  
WILLIAMSPORT   FAIR      27  10  49 SE6       30.33F WCI  20          
BINGHAMTON     FAIR      15   6  67 VRB3      30.26F                  
NEW YORK CITY  FAIR      29   7  39 MISG      30.41F                  
BALTIMORE      CLOUDY    33  21  61 E9        30.36F WCI  25          
WASHINGTON DC  CLOUDY    37  21  52 E8        30.36F WCI  31          

$$